Location: Avenches
(46.8809°N, 7.0410°E)
Time: 02:50:53
(UTC+00:00)

X-37B - Pass Details

Date: 11 March 2021
Orbit: 380 x 394 km, 45.0° (Epoch: 07 April)

Event Time Altitude Azimuth Distance (km) Brightness Sun altitude
Rises 19:14:57 0° 222° (SW) 2,265 4.8 -18.2°
Reaches altitude 10° 19:17:17 10° 207° (SSW) 1,416 3.5 -18.6°
Enters shadow 19:18:24 17° 191° (S) 1,094 2.8 -18.8°
